SCP
0 0 0 0 0 0 0 0 0 0 0 0 0 0 0 0 0 0 0 0 0 0 0 0 0 0 0 0 0 0 0 0 0 0 0 0 0 0 0 0 0 0 0
0 0 0 0 0 0 0 0 0 0 0 0 0 0 0 0 0 0 0 0 0 0 0 0 0 0 0 0 0 0 0 0 0 0 0 0 0 0 0 0 0 0 0
0 0 0 0 0 0 0 0 0 0 0 0 0 0 0 0 0 0 0 0 0 0 0 0 0 0 0 0 0 0 0 0 0 0 0 0 0 0 0 0 0 0 0
0 0 0 0 0 0 0 0 0 0 0 0 0 0 0 0 0 0 0 0 0 0 0 0 0 0 0 0 0 0 0 0 0 0 0 0 0 0 0 0 0 0 0
0 0 0 0 0 0 0 0 0 0 0 0 0 0 0 0 0 0 0 0 0 0 0 0 0 0 0 0 0 0 0 0 0 0 0 0 0 0 0 0 0 0 0
0 0 0 0 0 0 0 0 0 0 0 0 0 0 0 0 0 0 0 0 0 0 0 0 0 0 0 0 0 0 0 0 0 0 0 0 0 0 0 0 0 0 0
0 0 0 0 0 0 0 0 0 0 0 0 0 0 0 0 0 0 0 0 0 0 0 0 0 0 0 0 0 0 0 0 0 0 0 0 0 0 0 0 0 0 0
0 0 0 0 0 0 0 0 0 0 0 0 0 0 0 0 0 0 0 0 0 0 0 0 0 0 0 0 0 0 0 0 0 0 0 0 0 0 0 0 0 0 0
0 0 0 0 0 0 0 0 0 0 0 0 0 0 0 0 0 0 0 0 0 0 0 0 0 0 0 0 0 0 0 0 0 0 0 0 0 0 0 0 0 0 0
0 0 0 0 0 0 0 0 0 0 0 0 0 0 0 0 0 0 0 0 0 0 0 0 0 0 0 0 0 0 0 0 0 0 0 0 0 0 0 0 0 0 0
0 0 0 0 0 0 0 0 0 0 0 0 0 0 0 0 0 0 0 0 0 0 0 0 0 0 0 0 0 0 0 0 0 0 0 0 0 0 0 0 0 0 0
0 0 0 0 0 0 0 0 0 0 0 0 0 0 0 0 0 0 0 0 0 0 0 0 0 0 0 0 0 0 0 0 0 0 0 0 0 0 0 0 0 0 0
0 0 0 0 0 0 0 0 0 0 0 0 0 0 0 0 0 0 0 0 0 0 0 0 0 0 0 0 0 0 0 0 0 0 0 0 0 0 0 0 0 0 0
0 0 0 0 0 0 0 0 0 0 0 0 0 0 0 0 0 0 0 0 0 0 0 0 0 0 0 0 0 0 0 0 0 0 0 0 0 0 0 0 0 0 0
0 0 0 0 0 0 0 0 0 0 0 0 0 0 0 0 0 0 0 0 0 0 0 0 0 0 0 0 0 0 0 0 0 0 0 0 0 0 0 0 0 0 0
0 0 0 0 0 0 0 0 0 0 0 0 0 0 0 0 0 0 0 0 0 0 0 0 0 0 0 0 0 0 0 0 0 0 0 0 0 0 0 0 0 0 0
0 0 0 0 0 0 0 0 0 0 0 0 0 0 0 0 0 0 0 0 0 0 0 0 0 0 0 0 0 0 0 0 0 0 0 0 0 0 0 0 0 0 0
0 0 0 0 0 0 0 0 0 0 0 0 0 0 0 0 0 0 0 0 0 0 0 0 0 0 0 0 0 0 0 0 0 0 0 0 0 0 0 0 0 0 0
0 0 0 0 0 0 0 0 0 0 0 0 0 0 0 0 0 0 0 0 0 0 0 0 0 0 0 0 0 0 0 0 0 0 0 0 0 0 0 0 0 0 0
0 0 0 0 0 0 0 0 0 0 0 0 0 0 0 0 0 0 0 0 0 0 0 0 0 0 0 0 0 0 0 0 0 0 0 0 0 0 0 0 0 0 0
0 0 0 0 0 0 0 0 0 0 0 0 0 0 0 0 0 0 0 0 0 0 0 0 0 0 0 0 0 0 0 0 0 0 0 0 0 0 0 0 0 0 0
0 0 0 0 0 0 0 0 0 0 0 0 0 0 0 0 0 0 0 0 0 0 0 0 0 0 0 0 0 0 0 0 0 0 0 0 0 0 0 0 0 0 0
0 0 0 0 0 0 0 0 0 0 0 0 0 0 0 0 0 0 0 0 0 0 0 0 0 0 0 0 0 0 0 0 0 0 0 0 0 0 0 0 0 0 0
0 0 0 0 0 0 0 0 0 0 0 0 0 0 0 0 0 0 0 0 0 0 0 0 0 0 0 0 0 0 0 0 0 0 0 0 0 0 0 0 0 0 0
0 0 0 0 0 0 0 0 0 0 0 0 0 0 0 0 0 0 0 0 0 0 0 0 0 0 0 0 0 0 0 0 0 0 0 0 0 0 0 0 0 0 0
0 0 0 0 0 0 0 0 0 0 0 0 0 0 0 0 0 0 0 0 0 0 0 0 0 0 0 0 0 0 0 0 0 0 0 0 0 0 0 0 0 0 0
Wind_Speed
2 3 4 4 3 3 4 4 5 5 6 6 7 7 8 8 8 8 8 8 7 7 7 6 7 7 8 9 10 10 10 10 10 10 10 9 9 8 8 8 8 7 9
2 2 4 4 3 3 3 4 5 5 6 7 7 7 7 8 8 8 7 7 7 7 7 6 7 7 7 8 9 9 9 10 9 9 9 8 9 8 8 8 8 5 9
1 1 3 3 3 2 3 3 4 5 6 6 7 6 7 7 7 7 7 7 7 7 7 7 6 6 6 6 7 8 9 9 9 9 7 4 5 7 8 8 8 8 8
2 1 1 3 2 2 3 4 4 4 5 6 6 6 7 7 7 7 7 6 6 7 7 6 6 6 6 5 6 7 8 9 9 8 4 4 4 6 7 8 8 8 8
1 0 1 3 2 3 3 3 3 4 4 5 6 6 7 6 6 6 6 6 6 6 6 5 5 5 5 5 5 6 8 9 8 6 3 3 2 6 7 8 8 8 8
1 1 1 2 2 3 3 3 3 4 4 5 5 6 6 5 5 5 5 5 5 5 5 4 4 3 4 5 5 6 7 8 6 4 3 2 2 5 6 7 7 7 7
0 0 0 1 2 2 2 2 2 3 4 5 5 5 5 5 5 4 4 4 4 4 4 4 3 3 4 5 6 6 7 6 4 3 2 2 2 5 6 7 7 7 7
1 1 1 0 1 2 2 2 1 2 4 5 5 5 4 4 3 3 3 4 4 4 4 4 4 3 4 5 5 6 6 6 4 4 3 3 4 5 5 7 8 8 7
2 2 2 1 1 1 2 2 2 2 4 5 5 4 4 3 2 3 3 4 4 4 3 3 3 3 4 5 5 5 5 5 3 2 3 2 4 5 5 7 8 7 7
3 3 3 2 2 2 2 3 3 3 4 4 5 4 3 2 2 3 2 3 3 3 2 2 2 3 3 4 4 4 4 4 2 3 2 3 5 6 5 6 7 7 7
3 4 3 3 3 3 3 4 4 4 4 4 3 4 3 2 2 2 2 2 2 2 1 1 1 2 3 3 3 3 3 2 2 2 2 4 5 6 6 6 6 7 7
2 3 3 3 3 3 2 3 3 4 4 4 3 3 2 2 2 2 2 1 1 1 1 2 2 3 3 2 1 2 1 2 2 2 3 6 6 5 5 5 5 6 7
0 1 2 2 2 3 2 2 2 2 3 3 3 3 3 3 2 2 2 2 2 2 2 2 2 2 2 1 1 1 1 1 1 1 2 5 5 5 5 5 6 6 6
1 1 1 2 2 2 2 2 2 2 2 2 2 2 2 2 2 2 2 2 2 1 2 1 1 1 2 1 1 1 2 1 1 1 2 5 5 6 5 5 6 6 7
1 1 1 2 2 2 2 2 2 2 2 1 2 2 2 2 2 2 2 2 2 1 1 1 1 1 1 1 1 1 1 2 2 2 1 4 5 5 5 5 6 6 6
1 0 1 2 1 2 2 2 1 1 1 1 1 2 2 1 1 2 2 2 2 1 1 1 1 1 1 1 1 1 1 1 1 1 1 2 4 4 5 5 5 5 5
1 1 1 2 2 2 2 2 1 1 1 1 1 1 2 1 2 2 1 1 1 1 2 1 2 2 2 2 1 1 1 0 1 1 1 1 1 3 3 4 4 4 5
2 1 1 2 3 2 2 2 2 2 2 1 1 1 2 2 2 2 1 1 1 1 1 1 1 2 2 2 1 1 1 0 0 1 1 1 1 1 2 3 3 4 4
2 2 1 2 2 2 2 2 2 2 2 1 2 1 1 2 2 2 1 1 1 1 2 1 2 1 1 2 1 1 1 1 1 0 0 1 1 1 1 2 3 4 4
2 2 2 2 1 2 2 2 2 2 2 2 1 1 2 1 2 2 1 1 2 2 2 2 2 2 1 1 1 2 1 1 1 1 1 1 1 1 1 2 2 2 3
2 2 1 1 1 1 1 1 1 0 1 1 1 2 2 2 1 1 1 2 2 2 1 1 1 2 2 1 1 2 2 2 1 1 1 1 1 1 1 2 1 2 2
3 3 2 1 1 1 1 1 1 1 0 0 1 2 2 2 1 1 2 1 2 2 2 2 1 1 1 1 1 1 2 3 2 1 1 0 1 1 1 1 1 2 1
4 4 3 2 1 1 1 2 2 2 2 2 2 2 2 2 2 2 2 2 1 1 1 1 1 2 0 1 1 1 1 1 2 2 1 1 1 1 1 1 1 1 1
4 3 3 2 2 2 2 2 2 2 1 0 0 1 2 2 2 2 1 2 1 1 1 0 1 1 1 0 0 0 1 1 0 2 2 2 2 2 2 1 1 1 1
3 3 3 2 2 2 2 3 3 1 1 0 1 2 2 2 2 2 2 2 1 1 1 1 1 1 1 1 0 0 0 1 1 1 2 3 3 2 1 1 1 1 1
3 3 3 2 2 2 3 3 3 3 2 1 1 1 1 1 2 2 2 2 1 1 1 1 1 1 0 1 1 1 1 1 1 1 1 2 2 2 2 1 1 1 1
Wind_Direction
242 235 206 199 202 191 177 168 163 161 159 154 151 151 152 150 149 149 150 153 155 155 152 148 151 152 154 154 155 158 156 156 158 160 161 160 160 163 165 163 162 161 156
193 201 194 198 203 192 171 162 161 158 158 155 151 152 153 150 146 144 147 155 159 155 150 146 147 155 155 157 162 162 161 159 161 161 161 162 165 167 165 163 166 161 164
134 181 195 190 188 170 154 149 156 155 152 151 151 155 153 150 147 147 148 154 157 155 152 146 145 150 152 160 168 167 165 162 161 160 158 152 161 168 170 172 171 169 170
132 154 200 172 161 151 148 150 149 148 148 150 153 157 152 149 148 147 148 151 154 154 154 153 152 153 153 158 164 170 168 161 159 158 147 146 162 173 178 179 175 177 176
122 180 229 160 153 141 142 144 145 146 149 151 150 154 152 149 152 150 150 153 151 152 156 157 156 156 162 164 160 166 168 163 160 149 133 139 159 179 183 181 178 178 179
128 209 228 157 144 132 134 133 146 153 153 154 154 155 151 153 156 156 154 152 151 154 160 161 159 160 167 169 168 156 155 159 150 134 132 137 161 187 184 180 180 181 181
125 312 276 154 150 141 130 133 151 160 152 150 148 147 149 153 156 157 155 154 154 158 159 158 164 171 177 168 161 159 158 154 139 134 141 151 179 192 197 195 187 182 181
98 344 347 149 115 113 118 114 95 142 150 144 139 139 147 153 156 158 167 167 162 164 162 165 173 172 164 166 165 163 159 163 152 151 160 180 193 199 198 193 181 176 177
45 18 1 3 41 80 82 69 63 118 131 131 132 135 136 141 142 132 149 162 163 162 163 166 175 175 171 171 172 164 162 163 148 157 180 188 192 198 194 188 177 174 175
38 23 14 21 24 31 40 50 50 94 110 119 125 124 120 108 90 97 115 151 162 172 172 163 168 167 164 166 165 158 153 152 160 175 187 200 199 204 201 185 182 181 180
33 15 20 34 28 25 29 33 36 62 84 95 98 91 72 45 38 67 96 139 160 177 174 140 127 125 127 124 133 144 141 147 167 184 190 205 209 209 201 193 188 186 187
21 13 24 36 39 32 33 34 31 37 54 63 63 56 47 41 33 47 44 52 68 72 87 82 76 99 94 93 119 122 128 159 178 187 194 201 206 202 198 193 186 191 198
325 32 36 36 45 46 36 41 39 38 50 56 54 50 54 48 39 35 33 39 39 43 46 48 47 65 84 98 99 121 143 149 177 194 196 200 203 201 205 202 202 202 206
94 36 49 58 56 44 49 47 47 48 52 48 41 47 62 55 43 40 43 41 41 46 54 51 52 65 84 101 131 136 130 142 174 177 195 193 200 205 211 211 208 209 212
90 75 67 73 77 65 58 43 54 49 51 46 38 38 65 73 55 47 41 39 38 44 54 57 56 60 74 80 105 119 131 151 168 180 195 196 202 213 220 222 220 217 214
174 162 94 83 85 81 76 65 48 49 47 46 38 32 51 73 70 60 49 37 30 32 46 65 75 69 68 71 69 77 115 144 174 181 204 221 218 226 237 234 228 233 230
193 176 140 121 89 92 90 78 67 49 59 51 25 35 56 70 75 73 64 43 25 33 49 56 55 60 71 67 52 46 61 109 175 193 205 229 241 230 233 240 237 243 243
161 158 148 106 97 93 82 70 58 49 50 41 29 35 50 61 80 77 69 44 32 44 56 62 55 57 51 46 35 11 18 357 221 201 191 200 217 228 237 244 246 250 248
169 150 115 88 100 105 92 78 64 54 43 34 36 31 36 52 76 88 73 52 48 58 51 51 57 66 51 31 31 22 10 351 331 264 189 200 214 229 245 254 255 254 253
150 133 114 96 82 89 85 73 58 46 26 28 35 30 43 56 78 96 92 65 67 68 51 46 50 49 51 14 20 21 7 356 1 341 286 261 244 249 250 262 270 268 262
140 133 135 117 94 91 83 93 77 25 9 15 14 21 33 41 53 78 75 65 69 76 73 69 61 55 34 26 43 8 4 21 20 356 342 335 299 274 249 243 247 252 267
171 170 166 163 143 132 139 142 137 123 59 27 6 18 28 39 40 72 77 76 73 77 62 64 75 62 26 38 74 47 1 352 357 14 7 334 310 304 288 257 232 227 244
188 190 188 187 165 142 122 96 74 51 31 24 19 12 8 33 43 54 79 92 85 97 96 72 93 104 68 17 60 115 117 285 317 333 347 354 331 317 301 287 260 253 250
207 194 189 180 163 159 139 129 127 123 124 298 346 5 7 24 38 46 61 79 80 90 108 131 108 112 127 57 20 78 164 174 211 320 328 336 329 317 307 309 298 267 272
197 190 194 183 180 174 160 158 152 147 159 43 35 28 18 17 29 35 50 61 59 53 49 57 74 91 133 157 171 178 133 94 142 187 300 323 332 322 315 304 308 303 290
191 188 185 184 205 190 172 166 166 166 155 120 57 34 11 14 19 26 50 47 36 30 28 52 72 102 120 140 140 149 157 154 195 187 238 291 308 313 317 303 303 305 300